Stanton, MN

1:46 AM CST on February 21, 2018 (GMT -0600)
Stanton

Weather History for KSYN - June, 2013

Change the Weather History Date:

Friday, June 21, 2013

  Actual Average (KLVN) Record (KLVN)
Temperature  
Mean Temperature 72 °F -  
Max Temperature 81 °F 78 °F 95 °F (1988)
Min Temperature 64 °F 57 °F 38 °F (1992)
Cooling Degree Days 8    
Growing Degree Days 22 (Base 50)    
Moisture  
Dew Point 64 °F    
Average Humidity 75    
Maximum Humidity 93    
Minimum Humidity 49    
Precipitation  
Precipitation 0.91 in - - ()
Sea Level Pressure  
Sea Level Pressure 29.91 in    
Wind  
Wind Speed 9 mph (SE)    
Max Wind Speed 30 mph    
Max Gust Speed 39 mph    
Visibility 10 miles    
Events Rain , Thunderstorm    
Averages and records for this station are not official NWS values.
T = Trace of Precipitation, MM = Missing Value Source: NWS Daily Summary

Daily Weather History Graph

Daily Weather History Graph

Search for Another Location

Airport or City:

Trip Planner

Search our weather history database for the weather conditions in past years. The results will help you decide how hot, cold, wet, or windy it might be!

Date:

Astronomy

Jun. 21, 2013 Rise Set
Actual Time 5:27 AM CDT 9:00 PM CDT
Civil Twilight 4:50 AM CDT 9:37 PM CDT
Nautical Twilight 4:01 AM CDT 10:26 PM CDT
Astronomical Twilight 2:58 AM CDT 11:29 PM CDT
Moon 7:08 PM CDT 3:47 AM CDT
Length of Visible Light 16h 46m
Length of Day
15h 33m
Waxing Gibbous, 95% of the Moon is Illuminated
Jun 21
Waxing Gibbous
Jun 23
Full
Jun 29
Last Quarter
Jul 8
New
Jul 15
First Quarter

Hourly Weather History & Observations

Time (CDT) Temp. Heat Index Dew Point Humidity Pressure Visibility Wind Dir Wind Speed Gust Speed Precip Events Conditions
12:13 AM 81.7 °F 82.3 °F 61.0 °F 49% 29.90 in 10.0 mi SSE 10.4 mph 18.4 mph N/A   Overcast
12:33 AM 81.0 °F 81.8 °F 61.2 °F 51% 29.89 in 10.0 mi SSE 10.4 mph - N/A   Mostly Cloudy
12:54 AM 79.5 °F - 61.7 °F 54% 29.90 in 10.0 mi SSE 8.1 mph - N/A   Scattered Clouds
1:13 AM 79.2 °F - 62.1 °F 56% 29.88 in 10.0 mi SSE 12.7 mph 18.4 mph N/A   Mostly Cloudy
1:33 AM 79.2 °F - 62.1 °F 56% 29.85 in 10.0 mi SSE 12.7 mph 17.3 mph N/A   Overcast
1:53 AM 79.0 °F - 62.4 °F 57% 29.83 in 10.0 mi SSE 13.8 mph 18.4 mph N/A Thunderstorm Mostly Cloudy
2:12 AM 78.1 °F - 63.5 °F 61% 29.83 in 10.0 mi SSW 15.0 mph 26.5 mph N/A Rain , Thunderstorm Thunderstorms and Rain
2:33 AM 73.8 °F - 66.2 °F 77% 29.80 in 10.0 mi SSE 12.7 mph 19.6 mph 0.15 in Rain , Thunderstorm Light Thunderstorms and Rain
2:53 AM 74.3 °F - 66.2 °F 76% 29.79 in 10.0 mi South 12.7 mph 18.4 mph 0.15 in   Mostly Cloudy
3:13 AM 75.9 °F - 65.3 °F 70% 29.80 in 10.0 mi South 13.8 mph 21.9 mph N/A Thunderstorm Mostly Cloudy
3:33 AM 76.1 °F - 65.3 °F 69% 29.80 in 10.0 mi South 11.5 mph 19.6 mph N/A   Scattered Clouds
3:53 AM 77.0 °F - 66.2 °F 69% 29.80 in 10.0 mi South 11.5 mph 20.7 mph N/A Thunderstorm Thunderstorm
4:13 AM 76.3 °F - 65.7 °F 70% 29.81 in 10.0 mi SSW 8.1 mph 18.4 mph N/A Thunderstorm Thunderstorm
4:34 AM 67.1 °F - 62.8 °F 86% 29.94 in 2.0 mi NW 29.9 mph 39.1 mph 0.16 in Rain , Thunderstorm Heavy Thunderstorms and Rain
4:53 AM 64.8 °F - 62.6 °F 93% 29.93 in 2.0 mi NW 11.5 mph 16.1 mph 0.58 in Rain , Thunderstorm Heavy Thunderstorms and Rain
5:14 AM 64.9 °F - 62.8 °F 93% 29.93 in 3.0 mi NNW 3.5 mph - 0.10 in Rain , Thunderstorm Heavy Thunderstorms and Rain
5:33 AM 65.3 °F - 63.1 °F 93% 29.90 in 10.0 mi NNW 9.2 mph - 0.12 in Rain , Thunderstorm Light Thunderstorms and Rain
5:53 AM 65.7 °F - 63.5 °F 93% 29.89 in 10.0 mi NNE 6.9 mph - 0.13 in Rain , Thunderstorm Light Thunderstorms and Rain
6:14 AM 65.8 °F - 63.5 °F 92% 29.85 in 10.0 mi NNE 12.7 mph - 0.01 in Rain , Thunderstorm Light Thunderstorms and Rain
6:33 AM 66.4 °F - 63.3 °F 90% 29.86 in 10.0 mi ENE 8.1 mph 13.8 mph 0.01 in   Scattered Clouds
6:53 AM 66.2 °F - 62.6 °F 88% 29.83 in 10.0 mi SE 8.1 mph 17.3 mph 0.01 in   Scattered Clouds
7:14 AM 66.4 °F - 62.2 °F 86% 29.75 in 10.0 mi East 11.5 mph 18.4 mph N/A   Scattered Clouds
7:33 AM 66.4 °F - 62.6 °F 88% 29.84 in 10.0 mi WSW 5.8 mph - N/A Thunderstorm Clear
7:53 AM 66.4 °F - 62.6 °F 88% 29.86 in 10.0 mi WSW 9.2 mph - N/A   Clear
8:14 AM 66.2 °F - 62.6 °F 88% 29.85 in 10.0 mi WNW 4.6 mph - N/A   Clear
8:33 AM 66.2 °F - 62.8 °F 89% 29.90 in 10.0 mi SW 8.1 mph - N/A   Clear
8:53 AM 66.2 °F - 62.8 °F 89% 29.91 in 10.0 mi SW 6.9 mph - N/A   Clear
9:14 AM 66.4 °F - 62.8 °F 88% 29.92 in 10.0 mi WSW 3.5 mph - N/A   Clear
9:33 AM 67.1 °F - 63.0 °F 87% 29.90 in 10.0 mi NW 3.5 mph - N/A   Clear
9:53 AM 67.3 °F - 63.3 °F 87% 29.91 in 10.0 mi West 6.9 mph - N/A   Clear
10:14 AM 68.7 °F - 64.0 °F 85% 29.93 in 10.0 mi Calm Calm - N/A   Clear
10:33 AM 69.6 °F - 64.0 °F 82% 29.94 in 10.0 mi South 4.6 mph - N/A   Clear
10:53 AM 70.0 °F - 63.7 °F 80% 29.94 in 10.0 mi Calm Calm - N/A   Clear
11:14 AM 71.6 °F - 63.9 °F 76% 29.94 in 10.0 mi South 3.5 mph - N/A   Clear
11:33 AM 72.5 °F - 63.5 °F 73% 29.92 in 10.0 mi Calm Calm - N/A   Clear
11:53 AM 73.8 °F - 63.9 °F 71% 29.92 in 10.0 mi SW 5.8 mph - N/A   Clear
12:13 PM 73.8 °F - 63.7 °F 71% 29.93 in 10.0 mi SSW 5.8 mph - N/A   Scattered Clouds
12:33 PM 74.5 °F - 64.4 °F 71% 29.95 in 10.0 mi South 8.1 mph - N/A   Clear
12:54 PM 75.2 °F - 65.7 °F 72% 29.94 in 10.0 mi South 4.6 mph - N/A   Scattered Clouds
1:13 PM 75.2 °F - 65.1 °F 71% 29.94 in 10.0 mi South 6.9 mph - N/A   Mostly Cloudy
1:33 PM 76.3 °F - 65.5 °F 69% 29.94 in 10.0 mi South 3.5 mph - N/A   Mostly Cloudy
1:54 PM 76.8 °F - 64.8 °F 66% 29.93 in 10.0 mi South 9.2 mph - N/A   Mostly Cloudy
2:13 PM 77.0 °F - 65.1 °F 67% 29.93 in 10.0 mi South 6.9 mph - N/A   Mostly Cloudy
2:33 PM 77.2 °F - 65.7 °F 67% 29.93 in 10.0 mi South 5.8 mph - N/A   Overcast
2:53 PM 78.4 °F - 65.7 °F 65% 29.93 in 10.0 mi South 6.9 mph - N/A   Scattered Clouds
3:14 PM 77.7 °F - 65.3 °F 65% 29.92 in 10.0 mi South 4.6 mph - N/A   Mostly Cloudy
3:33 PM 78.3 °F - 65.8 °F 65% 29.91 in 10.0 mi SSW 6.9 mph - N/A   Overcast
3:53 PM 78.8 °F - 65.5 °F 64% 29.90 in 10.0 mi SE 3.5 mph - N/A   Mostly Cloudy
4:14 PM 79.3 °F - 66.4 °F 64% 29.89 in 10.0 mi Calm Calm - N/A   Scattered Clouds
4:33 PM 79.9 °F - 66.4 °F 63% 29.88 in 10.0 mi SSE 3.5 mph - N/A   Scattered Clouds
4:53 PM 80.8 °F 83.2 °F 67.1 °F 63% 29.90 in 10.0 mi East 4.6 mph - N/A   Clear
5:14 PM 80.8 °F 83.5 °F 67.8 °F 65% 29.90 in 10.0 mi East 6.9 mph - N/A   Scattered Clouds
5:33 PM 80.6 °F 83.1 °F 67.5 °F 64% 29.91 in 10.0 mi East 4.6 mph - N/A   Overcast
5:53 PM 79.7 °F - 68.2 °F 68% 29.91 in 10.0 mi ENE 6.9 mph - N/A   Overcast
6:13 PM 79.2 °F - 68.2 °F 69% 29.92 in 10.0 mi ENE 5.8 mph - N/A   Overcast
6:33 PM 78.3 °F - 68.4 °F 71% 29.94 in 10.0 mi NE 6.9 mph - N/A   Overcast
6:53 PM 77.7 °F - 68.2 °F 72% 29.95 in 10.0 mi NE 5.8 mph - N/A   Overcast
7:13 PM 77.0 °F - 68.2 °F 74% 29.97 in 10.0 mi ENE 5.8 mph - N/A Rain Rain
7:33 PM 75.2 °F - 69.1 °F 81% 29.96 in 10.0 mi ENE 9.2 mph - N/A Rain , Thunderstorm Light Thunderstorms and Rain
7:53 PM 75.0 °F - 69.1 °F 82% 29.98 in 10.0 mi Calm Calm - N/A Thunderstorm Mostly Cloudy
8:13 PM 75.0 °F - 68.9 °F 81% 29.98 in 10.0 mi NE 4.6 mph - N/A Rain Light Rain
8:34 PM 74.5 °F - 69.4 °F 84% 30.01 in 10.0 mi North 20.7 mph 26.5 mph N/A   Mostly Cloudy
8:53 PM 68.0 °F - 61.3 °F 79% 30.03 in 7.0 mi North 18.4 mph 23.0 mph 0.03 in Rain Rain
9:13 PM 68.0 °F - 63.0 °F 84% 30.01 in 10.0 mi NE 15.0 mph 23.0 mph 0.01 in Rain , Thunderstorm Light Thunderstorms and Rain
9:34 PM 68.0 °F - 62.6 °F 83% 30.00 in 10.0 mi NE 10.4 mph - 0.01 in Thunderstorm Mostly Cloudy
9:53 PM 68.4 °F - 61.2 °F 78% 30.00 in 10.0 mi East 11.5 mph 17.3 mph 0.01 in Thunderstorm Scattered Clouds
10:13 PM 68.7 °F - 60.8 °F 76% 29.95 in 10.0 mi East 12.7 mph - N/A   Clear
10:34 PM 69.1 °F - 60.8 °F 75% 29.94 in 10.0 mi East 12.7 mph 17.3 mph N/A   Clear
10:53 PM 69.8 °F - 59.7 °F 70% 29.92 in 10.0 mi East 5.8 mph - N/A   Clear
11:13 PM 70.0 °F - 58.6 °F 67% 29.93 in 10.0 mi Calm Calm - N/A   Clear
11:33 PM 69.3 °F - 59.7 °F 72% 29.90 in 10.0 mi SE 15.0 mph 21.9 mph N/A   Clear
11:53 PM 69.1 °F - 59.9 °F 72% 29.91 in 10.0 mi SE 11.5 mph 21.9 mph N/A   Clear